Location: Vihti�l�
(61.3833°N, 23.0667°E)
Time: 05:21:24
(UTC+00:00)

COSMOS 2455 - Pass Details

Date: 29 November 2020
Orbit: 900 x 909 km, 67.1° (Epoch: 22 January)

Event Time Altitude Azimuth Distance (km) Brightness Sun altitude
Rises 06:06:03 0° 226° (SW) 3,530 5.8 -6.7°
Reaches altitude 10° 06:08:33 10° 226° (SW) 2,592 5.1 -6.5°
Maximum altitude 06:14:35 82° 139° (SE) 926 3.1 -5.9°
Drops below altitude 10° 06:20:39 10° 54° (NE) 2,607 5.5 -5.3°
Sets 06:23:10 0° 53° (NE) 3,551 6.2 -5.1°
